When you browse on this site, cookies collect data to enhance your experience and personalize the content and advertising you see.
Visit our Privacy Policy to learn more. By continuing to use the site, you agree to this use of cookies and data.
  • In Hungary
  • List of Countries
  • For 7 days
  • Water Temperature
  • Weather Map
  • News
  • Weather Widgets
  • user-avatar
    Login

    Hourly Weather Zelenyi Kolodyaz'

    Today, 22 August, Thursday

    Time Temperature Precipitation Wind Pressure Humidity
    00:00 +21°C° 0 mm 3 mps 755 mmHg 79%
    01:00 +20°C° 0 mm 3 mps 755 mmHg 81%
    02:00 +20°C° 0 mm 3 mps 755 mmHg 81%
    03:00 +20°C° 0 mm 3 mps 754 mmHg 82%
    04:00 +20°C° 0 mm 3 mps 754 mmHg 83%
    05:00 +19°C° 0 mm 3 mps 754 mmHg 85%
    06:00 +21°C° 0 mm 3 mps 754 mmHg 79%
    07:00 +24°C° 0 mm 3 mps 754 mmHg 74%
    08:00 +26°C° 0 mm 4 mps 755 mmHg 69%
    09:00 +27°C° 0 mm 4 mps 754 mmHg 64%
    10:00 +28°C° 0 mm 4 mps 754 mmHg 59%
    11:00 +30°C° 0 mm 4 mps 754 mmHg 55%
    12:00 +30°C° 0 mm 4 mps 754 mmHg 54%
    13:00 +30°C° 0 mm 4 mps 754 mmHg 53%
    14:00 +32°C° 0 mm 4 mps 754 mmHg 52%
    15:00 +30°C° 0 mm 4 mps 754 mmHg 53%
    16:00 +30°C° 0 mm 4 mps 754 mmHg 54%
    17:00 +29°C° 0 mm 4 mps 754 mmHg 55%
    18:00 +28°C° 0 mm 4 mps 754 mmHg 58%
    19:00 +27°C° 0 mm 3 mps 755 mmHg 60%
    20:00 +25°C° 0 mm 3 mps 755 mmHg 63%
    21:00 +25°C° 0 mm 3 mps 755 mmHg 64%
    22:00 +24°C° 0 mm 3 mps 755 mmHg 64%
    23:00 +24°C° 0 mm 3 mps 755 mmHg 64%

    Tomorrow, 23 August, Friday

    Time Temperature Precipitation Wind Pressure Humidity
    00:00 +24°C° 0 mm 3 mps 755 mmHg 66%
    01:00 +22°C° 0 mm 3 mps 756 mmHg 68%
    02:00 +22°C° 0 mm 3 mps 756 mmHg 70%
    03:00 +21°C° 0 mm 3 mps 756 mmHg 73%
    04:00 +21°C° 0 mm 3 mps 756 mmHg 75%
    05:00 +21°C° 0 mm 3 mps 756 mmHg 78%
    06:00 +22°C° 0 mm 4 mps 756 mmHg 76%
    07:00 +23°C° 0 mm 4 mps 756 mmHg 74%
    08:00 +25°C° 0 mm 4 mps 756 mmHg 72%
    09:00 +26°C° 0 mm 4 mps 756 mmHg 66%
    10:00 +28°C° 0 mm 4 mps 756 mmHg 61%
    11:00 +29°C° 0 mm 4 mps 756 mmHg 55%
    12:00 +29°C° 0 mm 4 mps 756 mmHg 54%
    13:00 +30°C° 0 mm 5 mps 756 mmHg 53%
    14:00 +30°C° 0 mm 5 mps 756 mmHg 52%
    15:00 +29°C° 0 mm 5 mps 756 mmHg 54%
    16:00 +29°C° 0 mm 5 mps 756 mmHg 57%
    17:00 +28°C° 0 mm 5 mps 756 mmHg 59%
    18:00 +27°C° 0 mm 5 mps 756 mmHg 66%
    19:00 +25°C° 0 mm 4 mps 756 mmHg 72%
    20:00 +23°C° 0 mm 4 mps 756 mmHg 78%
    21:00 +22°C° 0 mm 4 mps 756 mmHg 79%
    22:00 +22°C° 0 mm 4 mps 756 mmHg 81%
    23:00 +21°C° 0 mm 4 mps 756 mmHg 82%

    Day after tomorrow, 24 August, Saturday

    Time Temperature Precipitation Wind Pressure Humidity
    00:00 +21°C° 0 mm 4 mps 756 mmHg 82%
    01:00 +20°C° 0 mm 4 mps 756 mmHg 82%
    02:00 +20°C° 0 mm 4 mps 757 mmHg 83%
    03:00 +20°C° 0 mm 4 mps 757 mmHg 81%
    04:00 +19°C° 0 mm 4 mps 757 mmHg 80%
    05:00 +19°C° 0 mm 4 mps 757 mmHg 79%
    06:00 +20°C° 0 mm 4 mps 757 mmHg 74%
    07:00 +21°C° 0 mm 4 mps 757 mmHg 70%
    08:00 +22°C° 0 mm 5 mps 757 mmHg 65%
    09:00 +25°C° 0 mm 4 mps 757 mmHg 61%
    10:00 +26°C° 0 mm 4 mps 757 mmHg 57%
    11:00 +28°C° 0 mm 4 mps 757 mmHg 53%
    12:00 +29°C° 0 mm 4 mps 757 mmHg 51%
    13:00 +29°C° 0 mm 4 mps 756 mmHg 50%
    14:00 +30°C° 0 mm 4 mps 756 mmHg 48%
    15:00 +29°C° 0 mm 4 mps 756 mmHg 50%
    16:00 +29°C° 0 mm 4 mps 756 mmHg 52%
    17:00 +28°C° 0 mm 4 mps 756 mmHg 54%
    18:00 +27°C° 0 mm 4 mps 756 mmHg 58%
    19:00 +25°C° 0 mm 4 mps 756 mmHg 62%
    20:00 +22°C° 0 mm 4 mps 756 mmHg 66%
    21:00 +22°C° 0 mm 4 mps 757 mmHg 64%
    22:00 +21°C° 0 mm 4 mps 757 mmHg 63%
    23:00 +20°C° 0 mm 3 mps 757 mmHg 61%

    25 August, Sunday

    Time Temperature Precipitation Wind Pressure Humidity
    00:00 +20°C° 0 mm 3 mps 756 mmHg 60%
    01:00 +19°C° 0 mm 3 mps 756 mmHg 58%
    02:00 +19°C° 0 mm 3 mps 756 mmHg 57%
    03:00 +18°C° 0 mm 3 mps 756 mmHg 56%
    04:00 +18°C° 0 mm 3 mps 756 mmHg 56%
    05:00 +17°C° 0 mm 3 mps 756 mmHg 56%
    06:00 +19°C° 0 mm 4 mps 756 mmHg 53%
    07:00 +21°C° 0 mm 4 mps 756 mmHg 49%
    08:00 +22°C° 0 mm 5 mps 756 mmHg 46%
    09:00 +25°C° 0 mm 5 mps 757 mmHg 42%
    10:00 +26°C° 0 mm 5 mps 757 mmHg 38%
    11:00 +28°C° 0 mm 5 mps 757 mmHg 34%
    12:00 +28°C° 0 mm 5 mps 756 mmHg 33%
    13:00 +29°C° 0 mm 5 mps 756 mmHg 32%
    14:00 +29°C° 0 mm 5 mps 756 mmHg 30%
    15:00 +28°C° 0 mm 4 mps 756 mmHg 33%
    16:00 +28°C° 0 mm 4 mps 756 mmHg 36%
    17:00 +27°C° 0 mm 4 mps 756 mmHg 39%
    18:00 +25°C° 0 mm 4 mps 756 mmHg 45%
    19:00 +24°C° 0 mm 3 mps 756 mmHg 51%
    20:00 +21°C° 0 mm 3 mps 757 mmHg 57%
    21:00 +20°C° 0 mm 3 mps 757 mmHg 63%
    22:00 +20°C° 0 mm 4 mps 757 mmHg 68%
    23:00 +19°C° 0 mm 4 mps 758 mmHg 73%

    26 August, Monday

    Time Temperature Precipitation Wind Pressure Humidity
    00:00 +19°C° 0 mm 4 mps 758 mmHg 72%
    01:00 +18°C° 0 mm 4 mps 758 mmHg 70%
    02:00 +18°C° 0 mm 4 mps 758 mmHg 69%
    03:00 +17°C° 0 mm 4 mps 758 mmHg 70%
    04:00 +15°C° 0 mm 4 mps 758 mmHg 71%
    05:00 +15°C° 0 mm 4 mps 759 mmHg 73%
    06:00 +17°C° 0 mm 4 mps 759 mmHg 69%
    07:00 +17°C° 0 mm 5 mps 759 mmHg 64%
    08:00 +20°C° 0 mm 5 mps 759 mmHg 60%
    09:00 +21°C° 0 mm 5 mps 759 mmHg 54%
    10:00 +23°C° 0 mm 5 mps 759 mmHg 47%
    11:00 +25°C° 0 mm 5 mps 760 mmHg 41%
    12:00 +26°C° 0 mm 5 mps 759 mmHg 39%
    13:00 +26°C° 0 mm 5 mps 759 mmHg 37%
    14:00 +27°C° 0 mm 5 mps 759 mmHg 36%
    15:00 +26°C° 0 mm 4 mps 759 mmHg 38%
    16:00 +26°C° 0 mm 4 mps 758 mmHg 40%
    17:00 +25°C° 0 mm 4 mps 758 mmHg 43%
    18:00 +22°C° 0 mm 4 mps 758 mmHg 48%
    19:00 +20°C° 0 mm 3 mps 758 mmHg 53%
    20:00 +19°C° 0 mm 3 mps 758 mmHg 59%
    21:00 +18°C° 0 mm 3 mps 758 mmHg 61%
    22:00 +17°C° 0 mm 3 mps 758 mmHg 62%
    23:00 +17°C° 0 mm 3 mps 758 mmHg 64%

    27 August, Tuesday

    Time Temperature Precipitation Wind Pressure Humidity
    00:00 +16°C° 0 mm 3 mps 758 mmHg 66%
    01:00 +16°C° 0 mm 3 mps 758 mmHg 67%
    02:00 +14°C° 0 mm 3 mps 758 mmHg 68%
    03:00 +14°C° 0 mm 3 mps 758 mmHg 70%
    04:00 +14°C° 0 mm 2 mps 758 mmHg 71%
    05:00 +14°C° 0 mm 2 mps 758 mmHg 72%
    06:00 +16°C° 0 mm 2 mps 757 mmHg 64%
    07:00 +18°C° 0 mm 2 mps 757 mmHg 57%
    08:00 +20°C° 0 mm 2 mps 757 mmHg 49%
    09:00 +23°C° 0 mm 2 mps 757 mmHg 44%
    10:00 +24°C° 0 mm 2 mps 756 mmHg 39%
    11:00 +26°C° 0 mm 2 mps 756 mmHg 33%
    12:00 +26°C° 0 mm 2 mps 756 mmHg 31%
    13:00 +27°C° 0 mm 1 mps 755 mmHg 29%
    14:00 +28°C° 0 mm 1 mps 755 mmHg 26%
    15:00 +27°C° 0 mm 1 mps 754 mmHg 28%
    16:00 +27°C° 0 mm 1 mps 754 mmHg 30%
    17:00 +26°C° 0 mm 1 mps 754 mmHg 31%
    18:00 +24°C° 0 mm 1 mps 753 mmHg 35%
    19:00 +22°C° 0 mm 1 mps 753 mmHg 40%
    20:00 +20°C° 0 mm 1 mps 753 mmHg 44%
    21:00 +20°C° 0 mm 1 mps 753 mmHg 46%
    22:00 +19°C° 0 mm 1 mps 753 mmHg 48%
    23:00 +18°C° 0 mm 1 mps 753 mmHg 50%
    Show more